Starlink 11198

operational
NORAD ID: 60114 Int'l Des: 2024-118 Owner: SPXS Country: US Constellation: starlink
LEOCIRCULAR

About Starlink 11198

Description loading...

Live Position

Loading 3D Globe...

Upcoming Passes

Altitude History

Altitude vs Time

uPlot chart will show altitude changes over time

Two-Line Element Set

1 60114U 24118B 25258.55980358 .00001194 00000-0 14702-4 0 9996
2 60114 53.1592 4.8503 0001012 95.0620 265.0514 15.69725962 70489
Epoch: Sep 15, 2025 • Age: 28 hours

Current Status

Altitude 359.7 km
Velocity 7.70 km/s
Sub-Earth Point 7.76°N, 87.63°W
Launch Date Jun 24, 2024
Age 1.2 years
Type internet

Technical Details

Classification Payload
Mass 960.00 kg
Dry Mass 910.00 kg
Total Mass 960.00 kg
Length 0.30 m
Diameter 4.10 m
Span 29.00 m
Shape Box + pan
Manufacturer SPXS
Bus Type Starlink V2MD
Phase Status In Orbit
Owner/State SPXS/US

Large Constellations

Loading constellations...